Location: Chiroubles
(46.1812°N, 4.6660°E)
Time: 06:45:12
(UTC+00:00)

Transit 4A - Pass Details

Date: 02 December 2020
Orbit: 864 x 980 km, 66.8° (Epoch: 25 January)

Event Time Altitude Azimuth Distance (km) Brightness Sun altitude
Rises 10:07:34 0° 287° (WNW) 3,676 10.7 19.2°
Reaches altitude 10° 10:11:41 10° 312° (NW) 2,738 9.9 19.4°
Maximum altitude 10:14:50 14° 342° (NNW) 2,466 9.6 19.6°
Drops below altitude 10° 10:18:00 10° 12° (NNE) 2,740 9.9 19.8°
Sets 10:22:08 0° 37° (NE) 3,679 10.7 20.0°
